Location: Bratislava
(48.1500°N, 17.1170°E)
Time: 16:21:17
(UTC+01:00)

N. Korean satellite - Pass Details

Date: 30 January 2019
Orbit: 457 x 510 km, 97.2° (Epoch: 17 February)

Event Time Altitude Azimuth Distance (km) Brightness Sun altitude
Rises 06:25:06 0° 9° (N) 2,604 10.2 -9.8°
Reaches altitude 10° 06:27:13 10° 7° (N) 1,707 9.2 -9.5°
Maximum altitude 06:30:51 65° 286° (WNW) 546 6.5 -8.9°
Drops below altitude 10° 06:34:23 10° 204° (SSW) 1,662 9.2 -8.3°
Sets 06:36:26 0° 201° (SSW) 2,527 10.2 -8.0°
